Location: Proctor
(47.8934°N, 114.3048°W)
Time: 17:58:57
(UTC+00:00)

Transit 4A - Pass Details

Date: 17 May 2025
Orbit: 866 x 975 km, 66.8° (Epoch: 13 June)

Event Time Altitude Azimuth Distance (km) Brightness Sun altitude
Rises 11:13:56 0° 324° (NW) 3,590 11.0 -6.6°
Reaches altitude 10° 11:16:30 10° 325° (NW) 2,627 10.3 -6.3°
Maximum altitude 11:22:36 86° 239° (WSW) 910 7.9 -5.5°
Drops below altitude 10° 11:28:30 10° 149° (SSE) 2,539 10.2 -4.7°
Sets 11:30:57 0° 149° (SSE) 3,463 10.8 -4.3°
